UMMSUMGG

Guest
Details From UMMS - Minsk Velikiydvor
To UMGG - Gomel
Flight Number -
Tags generated
Created
Modified
Stats Distance 135 nm / 251 km
Max Altitude 12,600 ft / 3,840 m
Waypoints 3
Social Downloads 5
Likes 0
Share VATSIM

Download

Looking for another format? Having issues loading an existing format? Contact us
Advertisement - Login to hide

Notes

Basic altitude profile: - Ascent Rate: 2500ft/min - Ascent Speed: 250kts - Cruise Altitude: 35000ft - Cruise Speed: 420kts - Descent Rate: 1500ft/min - Descent Speed: 250kts Options: - Use NATs: yes - Use PACOTS: yes - Use low airways: yes - Use high airways: yes

Route

UMMS NASKA UMGG

ID Type Via Altitude Latitude Longitude Leg Dist Tot Dist Heading (true) Name
O UMMS APT - 0 ft / 0 m 53.88255˚ 28.03079˚ - 0 nm - Minsk Velikiydvor
NASKA FIX - 12,600 ft / 3,840 m 53.61667˚ 28.91667˚ 35 nm 35 nm 117° / 117° -
O UMGG APT - 0 ft / 0 m 52.52703˚ 31.01647˚ 100 nm 135 nm 130° / 132° Gomel

Altitude Profile

Advertisement - Login to hide

UMMS

Details ICAO UMMS (MSQ)
Name Minsk Velikiydvor
Region Belarus and Russia (Kaliningrad Oblast)
Timezone Europe/Minsk (UTC+3.0)
Stats Elevation 669 ft / 204 m (AMSL)
Location 53.882550° 28.030786°
Runways 1
Magnetic Variation 8.054° E

METAR

UMMS 210530Z 23006MPS CAVOK 12/04 Q1007 R31/D NOSIG

Decode

TAF

TAF UMMS 202259Z 2100/2124 25008G13MPS 9999 BKN030 TEMPO 2100/2110 27012G17MPS BKN010 FM211000 29009G14MPS 9999 BKN015 TEMPO 2110/2118 31013G18MPS 2100 -SHRA BKN005 BKN020CB TEMPO 2118/2124 2000 BR BKN005

Decode

Departure Runways

ID Width Length Bearing (true) Bearing (mag) Surface Threshold Offset Overrun Length
13 197 ft / 60 m 11,938 ft / 3,639 m 138.85° 130.80° Concrete 0 ft / 0 m 0 ft / 0 m
31 197 ft / 60 m 11,938 ft / 3,639 m 318.88° 310.83° Concrete 0 ft / 0 m 0 ft / 0 m

UMGG

Details ICAO UMGG (GME)
Name Gomel
Region Belarus and Russia (Kaliningrad Oblast)
Timezone Europe/Minsk (UTC+3.0)
Stats Elevation 472 ft / 144 m (AMSL)
Location 52.527026° 31.016471°
Runways 1
Magnetic Variation 8.377° E

METAR

UMGG 210530Z 22007MPS CAVOK 11/06 Q1012 R28/D NOSIG

Decode

TAF

TAF UMGG 202300Z 2100/2124 25008G13MPS 9999 SCT020 TEMPO 2100/2105 25005MPS 2000 BR FU SCT005 TEMPO 2105/2118 28014G19MPS BEGMG 2118/2120 30009G14MPS

Decode

Destination Runways

ID Width Length Bearing (true) Bearing (mag) Surface Threshold Offset Overrun Length
11 141 ft / 43 m 8,405 ft / 2,562 m 110.82° 102.44° Asphalt 0 ft / 0 m 164 ft / 50 m
29 141 ft / 43 m 8,405 ft / 2,562 m 290.85° 282.47° Asphalt 0 ft / 0 m 164 ft / 50 m

Approach Navaids

Runway Type Ident Frequency Range Bearing (true) Bearing (mag) Slope Elevation
11 Localiser IGM 109.30 MHz 18 nm / 33 km 110.82° 102.44° - 471 ft / 144 m (AMSL)
11 Glidescope IGM 109.30 MHz 10 nm / 19 km 109.18° 100.80° 2.70° 471 ft / 144 m (AMSL)
29 Localiser IMV 108.70 MHz 18 nm / 33 km 290.82° 282.44° - 471 ft / 144 m (AMSL)
29 Glidescope IMV 108.70 MHz 10 nm / 19 km 290.82° 282.44° 2.70° 471 ft / 144 m (AMSL)

Popular Alternatives